Wind_Speed
9 8 8 7 7 8 9 8 12 11 14 13 12 11 13 13 13 12 10 11 10 11 11 10 10 9 8 8 7 7 6 6 6 5 4 4 3 2 2 2 2 3 3 3 3 3 2 2 2
8 8 8 7 7 10 12 13 14 13 15 14 13 13 14 14 14 13 12 12 11 12 11 10 10 9 9 9 8 7 7 6 6 5 5 4 4 4 4 4 4 4 4 4 3 3 3 3 3
8 8 7 6 6 8 12 16 18 15 15 15 14 13 14 13 13 14 14 14 12 12 12 11 11 10 10 10 9 8 7 7 7 6 6 5 5 5 5 5 5 5 5 5 4 4 4 4 3
8 6 5 6 7 9 13 19 20 17 16 16 15 14 14 14 14 14 14 15 14 13 12 12 12 11 11 10 9 9 8 8 7 7 6 6 6 6 7 7 7 6 6 6 5 5 5 5 5
7 4 5 7 7 11 17 19 18 17 17 17 17 16 14 15 15 14 14 13 14 14 13 13 13 12 11 10 10 9 9 8 8 8 7 7 7 8 8 8 8 7 7 7 7 6 6 6 6
6 4 7 8 8 14 19 18 16 16 17 17 16 17 15 15 15 15 15 14 14 14 15 14 14 12 11 11 11 10 9 9 9 9 8 8 8 8 8 9 9 8 8 8 8 7 7 7 7
6 4 5 5 11 14 18 18 15 15 16 16 15 16 16 15 15 16 16 16 15 14 15 16 14 13 12 12 11 11 10 10 10 10 9 9 9 9 9 9 9 9 9 9 9 9 9 9 9
5 3 5 4 11 13 17 17 16 15 15 15 16 16 15 14 15 16 17 16 16 15 16 16 15 14 14 13 12 12 12 11 11 11 10 10 10 10 10 10 10 10 10 10 10 10 10 9 10
4 5 4 6 13 13 15 15 16 16 15 16 16 16 14 15 16 16 17 17 17 17 17 17 16 15 15 14 14 13 13 12 12 11 11 11 11 10 10 10 10 11 10 10 10 10 9 9 9
4 4 3 10 13 13 14 15 16 16 16 17 17 16 15 16 16 17 18 19 19 19 19 18 18 17 16 15 14 14 14 13 12 12 12 11 11 11 11 11 11 11 10 10 9 9 8 8 9
5 3 6 9 11 13 14 15 16 16 17 18 17 16 15 16 17 19 20 21 20 20 20 19 18 17 16 16 14 14 14 14 13 12 12 11 11 11 10 11 10 10 9 9 8 8 8 8 8
8 8 9 10 13 16 16 16 16 16 16 17 18 17 16 16 18 20 22 23 22 22 22 21 20 18 17 16 15 15 15 13 13 12 12 11 11 11 10 10 9 9 8 8 7 7 7 7 7
9 10 11 12 15 19 19 17 16 16 17 17 18 18 18 18 18 19 20 22 23 24 23 22 21 20 18 16 15 15 14 13 12 12 12 11 10 10 9 8 8 7 7 7 7 6 6 7 7
8 8 10 13 17 19 22 19 16 17 17 18 18 16 16 18 17 18 19 21 24 24 24 22 21 20 18 17 15 14 14 13 12 11 11 10 9 9 8 7 7 6 6 6 6 5 6 5 6
9 10 13 16 20 22 23 20 19 19 19 19 19 16 17 18 18 18 18 20 22 22 23 22 23 21 19 18 17 15 13 12 10 10 9 8 8 8 7 6 6 6 5 5 5 4 4 4 4
12 14 16 18 20 24 23 20 20 20 19 20 19 17 16 15 15 17 17 19 22 22 22 21 22 21 20 19 17 15 13 11 10 9 8 7 7 6 6 5 5 4 3 3 3 3 3 3 3
12 14 16 17 22 22 22 21 20 21 20 20 18 17 15 14 13 15 16 17 20 21 22 21 22 21 20 19 16 14 13 11 10 8 8 6 5 5 4 3 2 2 2 2 2 2 2 2 2
12 11 13 15 19 21 20 19 19 20 21 20 19 17 14 11 11 13 14 16 18 19 19 20 20 20 19 18 16 14 12 11 9 8 7 5 4 3 2 1 0 0 1 1 1 1 1 2 2
11 11 14 16 18 20 18 17 17 18 19 19 18 17 13 10 8 9 11 13 16 18 20 19 19 19 18 16 15 13 12 11 9 8 7 5 4 3 2 1 1 1 2 2 2 3 3 3 3
12 13 15 17 19 19 16 15 16 17 18 19 18 16 13 10 7 8 9 11 14 17 20 19 18 18 17 16 14 13 12 10 9 8 7 6 5 3 2 2 2 2 3 3 3 3 3 3 4
12 14 16 18 17 17 15 14 16 17 17 17 18 16 13 11 8 7 7 9 12 15 17 18 19 17 17 16 14 13 11 10 9 8 7 7 6 4 3 2 2 2 2 2 2 3 3 4 4
14 15 16 16 15 16 12 14 16 16 17 17 16 14 13 11 10 7 5 4 7 11 14 16 17 16 15 14 14 13 11 11 10 9 8 7 6 5 4 3 3 2 1 1 1 2 3 4 4
15 14 14 15 16 17 11 9 15 15 18 19 17 15 12 11 9 7 4 1 5 8 11 14 16 15 15 15 14 13 12 12 10 9 9 8 7 6 5 4 3 2 1 1 2 2 3 4 5
15 14 15 18 19 19 8 6 12 14 17 19 17 14 11 9 8 6 5 2 2 5 9 12 14 14 14 14 13 13 13 11 10 10 9 8 8 7 6 5 5 4 4 3 4 4 5 6 7
15 16 17 18 21 22 11 6 11 14 16 17 15 14 9 8 6 5 4 3 1 3 7 10 13 13 13 13 13 13 12 11 11 11 10 9 9 8 8 7 7 6 6 6 7 7 8 8 9
15 15 16 18 18 20 17 10 8 11 14 15 14 11 9 7 6 5 3 3 2 4 7 9 11 12 12 12 12 12 12 11 11 11 11 10 10 9 9 9 8 9 9 9 10 10 11 12 12
16 15 15 17 16 16 19 14 10 8 10 12 13 11 9 7 6 5 4 2 2 3 5 8 9 10 10 10 10 11 11 11 12 12 12 11 11 11 11 11 11 11 11 12 13 14 14 15 16
16 15 14 14 15 14 17 16 14 10 10 12 13 11 10 8 6 5 4 2 1 2 3 6 7 8 9 10 10 11 12 12 13 13 13 13 13 13 13 13 13 14 14 15 16 17 18 19 19
18 15 14 14 14 14 17 19 15 12 12 12 12 11 10 9 7 5 4 3 1 1 2 3 5 7 8 10 11 12 12 13 14 14 14 14 15 15 15 15 16 16 17 18 19 20 21 22 22
20 17 16 16 14 13 14 20 17 13 13 11 11 12 11 9 9 7 6 6 5 5 5 6 7 8 10 11 12 13 14 15 15 15 16 16 17 17 18 18 19 19 20 21 22 23 24 25 25
Wind_Direction
343 340 341 344 348 352 350 320 294 296 292 292 291 284 278 277 267 262 256 252 236 232 231 231 232 231 234 234 238 244 247 247 245 242 239 240 251 266 281 296 304 313 323 329 333 335 341 344 342
338 335 336 343 344 354 336 315 298 296 292 293 289 279 275 271 266 261 259 255 238 234 234 233 231 229 233 236 240 246 247 250 252 248 246 250 257 266 278 290 297 301 306 311 311 309 314 315 315
335 333 339 350 0 338 311 300 295 299 298 292 288 281 279 274 269 260 253 249 239 233 233 231 228 228 234 238 240 244 246 252 255 254 256 260 267 274 280 286 290 292 294 296 298 297 294 295 293
334 334 347 13 2 313 290 287 294 296 296 292 286 285 277 271 269 260 252 242 233 229 228 228 224 228 237 240 240 245 250 253 257 260 262 267 273 277 278 281 284 286 285 285 287 287 284 282 279
333 337 19 21 334 298 290 292 298 296 292 288 284 283 276 269 265 260 251 241 230 229 227 227 225 228 237 241 241 244 248 254 259 263 267 272 275 277 277 280 283 285 284 284 284 280 275 272 269
326 343 38 1 313 287 293 300 303 298 294 289 282 278 276 269 262 256 251 244 235 231 226 225 225 227 235 241 243 243 249 255 261 264 268 273 276 279 280 280 283 283 281 282 279 276 272 266 264
331 0 44 337 289 295 298 303 304 302 298 292 286 280 277 265 258 253 246 242 234 230 230 224 223 225 231 236 237 241 248 255 260 265 269 273 277 279 279 278 279 280 281 279 276 275 273 266 261
355 33 87 301 282 288 297 307 310 305 298 296 288 278 277 265 258 250 245 240 236 234 231 224 223 224 230 234 237 242 248 254 261 266 271 274 277 278 277 275 277 279 280 278 277 272 269 264 258
33 66 54 275 280 289 301 307 310 312 307 299 292 285 276 266 255 247 244 239 236 230 228 224 222 224 229 236 241 245 251 256 262 266 271 274 276 276 276 276 276 277 276 277 276 269 264 261 257
12 57 293 277 292 305 314 319 319 317 308 300 296 286 277 266 254 247 244 239 234 231 228 223 223 224 229 237 242 247 253 257 262 266 270 274 277 277 277 276 276 276 274 274 274 267 261 261 258
0 340 303 309 320 326 328 326 321 315 306 302 297 287 277 269 257 249 244 241 237 234 227 223 227 228 231 236 243 249 255 259 262 268 272 275 280 283 280 277 276 274 273 270 267 262 260 261 257
358 353 340 339 336 338 336 330 323 316 310 306 298 290 277 272 263 253 248 243 240 232 231 230 229 231 232 238 246 250 254 259 264 269 274 278 283 285 284 282 277 273 271 268 268 263 263 264 259
3 353 346 342 340 341 338 333 327 317 320 312 300 290 280 273 265 257 248 244 240 236 231 231 231 233 233 239 245 248 253 257 264 269 274 277 281 283 285 284 280 274 271 271 270 267 265 268 267
13 353 336 337 339 338 337 335 326 322 325 321 308 295 284 273 264 257 251 246 239 236 228 225 228 232 233 239 241 247 253 256 262 269 273 277 280 281 282 283 281 276 274 276 277 275 275 274 269
9 353 342 339 342 337 334 332 332 331 330 325 316 301 287 276 267 259 251 244 241 235 227 228 230 230 233 238 242 247 251 255 256 265 271 276 278 279 278 278 281 281 278 275 273 272 275 278 272
3 348 343 340 331 330 332 333 330 331 328 328 322 314 295 282 270 257 255 247 237 232 231 234 231 232 234 238 241 245 249 252 252 259 265 271 274 274 271 274 277 276 274 272 274 279 283 284 279
357 340 332 323 322 324 329 331 329 334 332 328 326 322 306 285 271 256 254 243 233 232 231 233 233 232 235 237 238 244 245 246 247 251 256 262 266 269 266 270 270 277 285 284 288 296 293 290 288
329 319 308 306 317 324 327 329 329 336 336 334 334 330 323 301 272 258 248 242 233 228 227 229 228 229 230 232 236 238 237 237 239 242 246 248 250 256 257 247 257 8 5 352 352 0 355 338 325
301 308 308 316 318 320 325 325 326 339 340 338 338 338 334 322 295 268 250 240 231 227 227 227 229 228 226 228 232 230 229 230 232 234 231 231 230 226 209 163 110 85 73 61 51 48 40 28 15
308 313 314 315 315 315 318 316 327 341 346 344 343 344 344 335 317 288 265 249 233 225 225 230 227 226 225 223 224 223 223 223 224 221 220 217 210 198 183 160 129 99 82 68 58 49 39 32 26
307 308 308 311 314 310 312 314 328 342 348 348 346 348 349 348 340 312 280 252 235 225 223 225 220 221 219 219 219 217 214 217 214 212 209 208 199 190 184 174 157 126 93 67 51 41 37 32 25
297 297 301 310 308 296 302 308 321 340 345 344 348 351 351 351 351 342 319 260 228 215 216 215 209 209 206 207 210 208 208 206 204 201 201 201 196 192 191 186 178 164 129 55 26 17 12 8 3
290 298 306 307 299 289 288 309 322 334 339 342 345 348 351 354 360 5 360 307 219 214 207 206 201 199 199 204 204 203 199 198 200 200 200 199 197 198 202 208 210 217 241 287 319 335 338 339 337
292 302 313 313 312 315 323 330 313 328 336 337 339 342 343 353 6 16 18 13 188 193 195 198 194 193 198 200 200 198 196 198 202 202 204 204 206 210 217 226 231 240 253 272 290 301 308 314 316
291 304 313 314 318 325 329 314 306 322 330 330 332 340 343 348 2 16 30 41 129 179 185 184 187 190 192 195 194 194 197 201 205 208 212 213 217 222 230 237 242 250 260 272 284 291 297 302 304
286 295 299 304 312 315 313 294 296 314 327 329 331 335 343 349 354 8 22 40 100 142 163 178 185 190 192 193 197 199 201 205 211 216 219 222 226 231 238 243 251 258 266 273 280 286 290 294 296
280 285 286 294 302 303 301 300 294 299 325 330 330 330 332 340 353 359 3 23 68 136 173 183 186 189 193 196 200 204 210 215 220 223 226 230 235 239 244 249 256 263 269 274 280 284 287 290 291
278 280 276 279 286 292 298 298 303 314 325 323 324 322 323 325 333 347 2 12 50 115 156 184 191 195 201 206 211 218 224 227 230 232 234 238 244 247 251 256 261 267 272 277 281 284 287 288 289
265 276 280 277 272 279 294 301 308 316 320 315 317 314 314 313 309 309 313 319 299 224 200 203 212 218 222 224 226 229 234 236 238 240 243 247 251 255 259 264 268 272 276 279 282 285 286 287 289
253 261 270 276 272 273 284 291 293 298 301 301 303 304 302 304 302 295 291 289 279 263 246 238 236 237 238 239 239 241 242 244 246 249 252 254 257 261 264 268 272 276 279 281 282 284 286 287 288
Height
5900 5899 5899 5899 5899 5898 5895 5895 5893 5892 5892 5891 5891 5890 5888 5887 5887 5889 5885 5887 5890 5892 5893 5895 5896 5898 5899 5899 5900 5901 5901 5901 5901 5902 5902 5902 5902 5902 5902 5902 5901 5901 5901 5900 5900 5900 5899 5899 5898
5899 5899 5899 5899 5898 5897 5897 5895 5892 5891 5890 5890 5889 5888 5887 5886 5886 5885 5885 5887 5889 5890 5892 5894 5895 5896 5898 5898 5899 5900 5901 5901 5901 5901 5901 5901 5901 5901 5901 5901 5901 5901 5901 5900 5900 5900 5899 5899 5898
5898 5898 5898 5898 5897 5897 5898 5895 5892 5890 5889 5888 5887 5886 5885 5883 5883 5884 5885 5885 5887 5889 5890 5892 5893 5895 5896 5897 5898 5899 5900 5900 5900 5900 5900 5900 5900 5901 5901 5900 5900 5900 5900 5900 5899 5899 5899 5898 5898
5898 5898 5898 5898 5898 5899 5897 5893 5890 5889 5888 5886 5885 5884 5884 5883 5882 5883 5883 5884 5886 5888 5889 5891 5892 5894 5895 5896 5897 5898 5899 5899 5899 5900 5900 5900 5900 5900 5900 5899 5899 5899 5899 5899 5899 5898 5898 5898 5898
5897 5897 5897 5897 5897 5898 5895 5892 5889 5887 5885 5884 5882 5881 5881 5881 5881 5881 5881 5882 5884 5886 5888 5889 5891 5893 5894 5895 5896 5897 5898 5898 5899 5899 5899 5899 5899 5898 5898 5898 5898 5898 5898 5898 5898 5897 5897 5897 5897
5896 5896 5896 5898 5899 5897 5894 5890 5888 5885 5883 5881 5879 5878 5878 5878 5878 5879 5879 5880 5882 5884 5886 5887 5889 5891 5893 5894 5895 5896 5897 5897 5898 5898 5898 5898 5897 5897 5897 5897 5897 5897 5896 5896 5896 5896 5896 5896 5896
5896 5894 5896 5899 5899 5896 5891 5887 5885 5883 5880 5877 5877 5875 5875 5875 5876 5877 5877 5878 5879 5881 5884 5885 5887 5889 5891 5892 5893 5895 5896 5896 5896 5896 5896 5896 5896 5896 5896 5896 5896 5895 5895 5895 5895 5895 5895 5895 5895
5894 5894 5895 5898 5896 5894 5889 5885 5883 5881 5878 5875 5874 5872 5872 5872 5873 5874 5875 5876 5877 5879 5882 5883 5885 5887 5889 5891 5892 5893 5894 5895 5895 5895 5895 5895 5895 5895 5895 5894 5894 5894 5894 5893 5893 5893 5893 5893 5894
5893 5894 5894 5895 5893 5891 5887 5884 5881 5878 5876 5874 5871 5870 5870 5869 5870 5871 5872 5873 5875 5876 5879 5881 5883 5885 5887 5889 5890 5891 5892 5893 5893 5893 5893 5893 5893 5893 5893 5892 5892 5892 5892 5892 5892 5892 5892 5892 5892
5894 5893 5894 5892 5891 5888 5885 5882 5879 5876 5874 5871 5869 5868 5867 5867 5867 5868 5869 5870 5871 5873 5876 5878 5881 5883 5885 5887 5888 5889 5890 5891 5891 5891 5891 5891 5891 5891 5891 5891 5891 5890 5890 5890 5890 5890 5890 5890 5891
5892 5892 5892 5890 5888 5885 5883 5880 5877 5875 5871 5867 5864 5864 5863 5864 5864 5865 5866 5867 5868 5870 5871 5875 5878 5880 5882 5884 5886 5887 5888 5889 5889 5889 5889 5890 5889 5889 5889 5889 5889 5889 5889 5889 5889 5889 5889 5889 5889
5891 5891 5889 5888 5886 5883 5881 5878 5875 5872 5868 5866 5862 5860 5859 5860 5860 5861 5862 5863 5865 5867 5869 5872 5874 5877 5880 5882 5884 5885 5886 5887 5887 5888 5888 5888 5888 5888 5888 5887 5887 5887 5887 5887 5887 5888 5888 5888 5888
5890 5890 5888 5886 5884 5881 5879 5876 5873 5870 5866 5863 5860 5858 5857 5856 5856 5856 5857 5858 5860 5862 5865 5867 5871 5874 5877 5879 5881 5882 5884 5885 5886 5886 5886 5886 5887 5886 5886 5886 5885 5886 5886 5886 5886 5886 5886 5886 5886
5890 5888 5886 5884 5882 5879 5877 5874 5870 5866 5863 5861 5858 5855 5853 5852 5852 5852 5852 5854 5855 5856 5859 5863 5867 5871 5874 5876 5878 5880 5881 5883 5884 5884 5885 5885 5885 5885 5885 5884 5884 5884 5884 5884 5884 5885 5885 5885 5885
5887 5886 5884 5882 5880 5878 5876 5872 5868 5864 5861 5858 5855 5852 5849 5847 5847 5847 5848 5849 5850 5852 5856 5859 5863 5867 5870 5873 5875 5877 5879 5881 5882 5883 5883 5883 5884 5883 5883 5883 5883 5883 5883 5883 5883 5884 5884 5884 5884
5886 5885 5883 5882 5880 5877 5876 5871 5867 5863 5860 5856 5852 5849 5845 5842 5842 5843 5843 5845 5847 5849 5851 5856 5860 5864 5867 5870 5873 5875 5877 5879 5880 5881 5881 5882 5882 5882 5882 5882 5882 5882 5882 5882 5883 5883 5883 5883 5883
5886 5885 5884 5882 5880 5877 5874 5869 5865 5861 5857 5853 5849 5846 5842 5840 5839 5840 5840 5841 5843 5845 5847 5853 5857 5860 5864 5867 5870 5873 5875 5877 5878 5879 5880 5881 5881 5881 5881 5881 5881 5881 5882 5882 5882 5882 5882 5882 5882
5887 5888 5886 5882 5879 5876 5873 5868 5864 5860 5856 5852 5848 5844 5840 5838 5837 5837 5838 5838 5840 5842 5845 5850 5854 5857 5861 5865 5868 5871 5873 5875 5876 5878 5879 5880 5880 5880 5880 5881 5881 5881 5881 5882 5882 5882 5882 5882 5882
5887 5886 5883 5881 5878 5875 5871 5867 5863 5859 5855 5851 5847 5843 5839 5837 5835 5835 5835 5837 5838 5840 5844 5848 5851 5855 5859 5863 5866 5868 5871 5873 5875 5876 5877 5878 5879 5879 5880 5880 5881 5881 5881 5881 5881 5882 5882 5882 5882
5885 5883 5881 5879 5877 5873 5869 5866 5862 5858 5854 5851 5847 5843 5839 5837 5835 5834 5834 5835 5836 5839 5842 5845 5849 5853 5857 5861 5864 5867 5869 5871 5873 5875 5876 5877 5878 5879 5879 5880 5881 5881 5881 5881 5882 5882 5882 5882 5882
5883 5882 5880 5878 5874 5870 5867 5863 5860 5857 5854 5851 5847 5843 5840 5837 5835 5833 5833 5833 5834 5836 5839 5843 5847 5851 5855 5858 5862 5865 5867 5870 5872 5873 5875 5877 5877 5878 5879 5880 5880 5881 5881 5882 5882 5882 5882 5882 5882
5881 5880 5877 5874 5871 5867 5865 5862 5858 5856 5854 5851 5848 5844 5841 5838 5836 5834 5832 5832 5833 5835 5838 5842 5845 5849 5853 5856 5860 5863 5865 5868 5870 5872 5874 5876 5877 5878 5879 5879 5880 5881 5881 5881 5882 5882 5882 5882 5882
5878 5876 5874 5871 5866 5862 5858 5859 5858 5854 5853 5851 5848 5845 5842 5839 5837 5835 5834 5833 5834 5835 5838 5841 5844 5848 5851 5855 5858 5861 5864 5866 5869 5871 5873 5874 5876 5877 5878 5879 5880 5880 5881 5881 5881 5881 5881 5881 5881
5875 5874 5871 5867 5863 5857 5854 5858 5857 5854 5852 5851 5848 5846 5843 5841 5839 5837 5835 5835 5835 5836 5838 5841 5844 5848 5851 5854 5857 5860 5863 5865 5867 5870 5872 5873 5875 5876 5877 5878 5879 5879 5880 5880 5880 5880 5880 5880 5880
5873 5872 5869 5866 5862 5856 5853 5855 5855 5853 5852 5851 5848 5846 5844 5842 5840 5839 5838 5837 5836 5837 5839 5842 5845 5848 5851 5854 5856 5859 5862 5864 5866 5868 5870 5872 5873 5874 5876 5876 5877 5878 5878 5879 5879 5879 5879 5879 5878
5870 5870 5868 5865 5862 5859 5854 5852 5853 5852 5852 5850 5848 5846 5845 5843 5842 5840 5839 5839 5838 5839 5840 5842 5845 5848 5851 5853 5856 5859 5861 5863 5865 5867 5869 5870 5872 5873 5874 5875 5875 5876 5876 5877 5877 5877 5877 5876 5876
5867 5867 5866 5863 5861 5860 5854 5850 5848 5849 5850 5849 5847 5846 5845 5844 5843 5842 5841 5840 5840 5840 5842 5843 5846 5848 5851 5853 5855 5858 5860 5862 5864 5865 5866 5868 5869 5870 5871 5872 5873 5873 5874 5874 5874 5874 5874 5873 5873
5865 5864 5863 5861 5859 5858 5854 5849 5848 5847 5848 5848 5847 5846 5845 5844 5843 5843 5842 5841 5841 5842 5843 5844 5846 5848 5850 5852 5854 5856 5858 5860 5862 5863 5864 5865 5867 5868 5868 5869 5870 5870 5870 5871 5871 5870 5870 5870 5869
5860 5860 5859 5858 5857 5855 5853 5851 5846 5845 5846 5847 5847 5846 5845 5844 5843 5843 5842 5842 5843 5843 5844 5845 5846 5848 5850 5852 5853 5855 5857 5858 5859 5860 5861 5862 5864 5864 5865 5866 5866 5866 5866 5866 5866 5865 5865 5865 5864
5854 5855 5855 5855 5854 5853 5852 5851 5845 5844 5844 5844 5845 5845 5844 5843 5842 5842 5842 5842 5843 5843 5844 5844 5846 5847 5848 5850 5851 5852 5854 5855 5856 5857 5858 5859 5860 5860 5861 5861 5862 5862 5861 5861 5861 5860 5859 5859 5858